User: anonymous   Login
Location: Unspecified
(0.0000°N, 0.0000°E)
Time: 07:38:39
(UTC+00:00)
Language:

STARS-ME - Orbit

View from above orbital plane
View from above orbital plane
View from above satellite
View from above satellite

Ground track
Ground track

The orbit data is extracted from the following two-line orbital elements,

1 43640U 98067PQ  20224.16566111  .00013355  00000-0  12789-3 0  9991
2 43640  51.6353  30.4342 0003578 241.0047 119.0590 15.67024668105308
Epoch (UTC): 11 August 2020 03:58:33
Eccentricity: 0.0003578
inclination: 51.6353°
perigee height: 365 km
apogee height: 370 km
right ascension of ascending node: 30.4342°
argument of perigee: 241.0047°
revolutions per day: 15.67024668
mean anomaly at epoch: 119.0590°
orbit number at epoch: 10530

The dashed part of the orbit path shows where the satellite is in the earth's shadow,  

DLR